owner,sensor,date,latitude,longitude,vertical_datum,sea_water_practical_salinity,qcFlag 
DISL,ioos:station:DISL:DISL:1,2013-05-01T00:00:00Z,30.2513,-88.0778,2.197608,8.88,1111122 
DISL,ioos:station:DISL:DISL:1,2013-05-01T00:30:00Z,30.2513,-88.0778,2.16408,9.35,1111122 
DISL,ioos:station:DISL:DISL:1,2013-05-01T01:00:00Z,30.2513,-88.0778,2.151888,13.02,1111122 
DISL,ioos:station:DISL:DISL:1,2013-05-01T01:30:00Z,30.2513,-88.0778,2.124456,11.81,1111122 
DISL,ioos:station:DISL:DISL:1,2013-05-01T02:00:00Z,30.2513,-88.0778,2.0955,10.2,1111122 
DISL,ioos:station:DISL:DISL:1,2013-05-01T02:30:00Z,30.2513,-88.0778,2.067763,12.69,1111122 
DISL,ioos:station:DISL:DISL:1,2013-05-01T03:00:00Z,30.2513,-88.0778,2.059229,8.21,1111122 
DISL,ioos:station:DISL:DISL:1,2013-05-01T03:30:00Z,30.2513,-88.0778,2.0467322,9.64,1111122 
DISL,ioos:station:DISL:DISL:1,2013-05-01T04:00:00Z,30.2513,-88.0778,2.0266154,11.33,1111122 
DISL,ioos:station:DISL:DISL:1,2013-05-01T04:30:00Z,30.2513,-88.0778,2.0031457,11.48,1111122 
DISL,ioos:station:DISL:DISL:1,2013-05-01T05:00:00Z,30.2513,-88.0778,1.9775424,12.62,1111122 
DISL,ioos:station:DISL:DISL:1,2013-05-01T05:30:00Z,30.2513,-88.0778,1.9397472,13.1,1111122 
DISL,ioos:station:DISL:DISL:1,2013-05-01T06:00:00Z,30.2513,-88.0778,1.9702272,13.49,1111122 
DISL,ioos:station:DISL:DISL:1,2013-05-01T06:30:00Z,30.2513,-88.0778,1.9513296,14.16,1111122 
DISL,ioos:station:DISL:DISL:1,2013-05-01T07:00:00Z,30.2513,-88.0778,1.9251168,14.9,1111122 
DISL,ioos:station:DISL:DISL:1,2013-05-01T07:30:00Z,30.2513,-88.0778,1.926336,14.25,1111122 
DISL,ioos:station:DISL:DISL:1,2013-05-01T08:00:00Z,30.2513,-88.0778,1.915668,13.92,1111122 
DISL,ioos:station:DISL:DISL:1,2013-05-01T08:30:00Z,30.2513,-88.0778,1.9266409,13.52,1111122 
DISL,ioos:station:DISL:DISL:1,2013-05-01T09:00:00Z,30.2513,-88.0778,1.9443192,13.5,1111122 
DISL,ioos:station:DISL:DISL:1,2013-05-01T09:30:00Z,30.2513,-88.0778,1.9769329,13.38,1111122 
DISL,ioos:station:DISL:DISL:1,2013-05-01T10:00:00Z,30.2513,-88.0778,1.967484,13.77,1111122 
DISL,ioos:station:DISL:DISL:1,2013-05-01T10:30:00Z,30.2513,-88.0778,1.9876008,14.19,1111122 
DISL,ioos:station:DISL:DISL:1,2013-05-01T11:00:00Z,30.2513,-88.0778,2.0214336,14.99,1111122 
DISL,ioos:station:DISL:DISL:1,2013-05-01T11:30:00Z,30.2513,-88.0778,2.0199096,15.26,1111122 
DISL,ioos:station:DISL:DISL:1,2013-05-01T12:00:00Z,30.2513,-88.0778,2.0516088,15.55,1111122 
DISL,ioos:station:DISL:DISL:1,2013-05-01T12:30:00Z,30.2513,-88.0778,2.0705066,15.33,1111122 
DISL,ioos:station:DISL:DISL:1,2013-05-01T13:00:00Z,30.2513,-88.0778,2.0951953,15.17,1111122 
DISL,ioos:station:DISL:DISL:1,2013-05-01T13:30:00Z,30.2513,-88.0778,2.122932,15.15,1111122 
DISL,ioos:station:DISL:DISL:1,2013-05-01T14:00:00Z,30.2513,-88.0778,2.1488402,15.06,1111122 
DISL,ioos:station:DISL:DISL:1,2013-05-01T14:30:00Z,30.2513,-88.0778,2.2098,15.01,1111122 
DISL,ioos:station:DISL:DISL:1,2013-05-01T15:00:00Z,30.2513,-88.0778,2.154936,15.21,1111122 
DISL,ioos:station:DISL:DISL:1,2013-05-01T15:30:00Z,30.2513,-88.0778,2.200656,17.9,1111122 
DISL,ioos:station:DISL:DISL:1,2013-05-01T16:00:00Z,30.2513,-88.0778,2.252472,20.2,1111122 
DISL,ioos:station:DISL:DISL:1,2013-05-01T16:30:00Z,30.2513,-88.0778,2.27076,20.91,1111122 
DISL,ioos:station:DISL:DISL:1,2013-05-01T17:00:00Z,30.2513,-88.0778,2.313432,20.85,1111122 
DISL,ioos:station:DISL:DISL:1,2013-05-01T17:30:00Z,30.2513,-88.0778,2.2799041,20.76,1111122 
DISL,ioos:station:DISL:DISL:1,2013-05-01T18:00:00Z,30.2513,-88.0778,2.337816,20.71,1111122 
DISL,ioos:station:DISL:DISL:1,2013-05-01T18:30:00Z,30.2513,-88.0778,2.383536,20.44,1111122 
DISL,ioos:station:DISL:DISL:1,2013-05-01T19:00:00Z,30.2513,-88.0778,2.273808,20.4,1111122 
DISL,ioos:station:DISL:DISL:1,2013-05-01T19:30:00Z,30.2513,-88.0778,2.3561041,20.37,1111122 
DISL,ioos:station:DISL:DISL:1,2013-05-01T20:00:00Z,30.2513,-88.0778,2.4384,20.64,1111122 
DISL,ioos:station:DISL:DISL:1,2013-05-01T20:30:00Z,30.2513,-88.0778,2.4566882,20.7,1111122 
DISL,ioos:station:DISL:DISL:1,2013-05-01T21:00:00Z,30.2513,-88.0778,2.502408,20.96,1111122 
DISL,ioos:station:DISL:DISL:1,2013-05-01T21:30:00Z,30.2513,-88.0778,2.34696,21.61,1111122 
DISL,ioos:station:DISL:DISL:1,2013-05-01T22:00:00Z,30.2513,-88.0778,2.380488,21.57,1111122 
DISL,ioos:station:DISL:DISL:1,2013-05-01T22:30:00Z,30.2513,-88.0778,2.383536,22.0,1111122 
DISL,ioos:station:DISL:DISL:1,2013-05-01T23:00:00Z,30.2513,-88.0778,2.474976,22.43,1111122 
DISL,ioos:station:DISL:DISL:1,2013-05-01T23:30:00Z,30.2513,-88.0778,2.37744,22.92,1111122 
DISL,ioos:station:DISL:DISL:1,2013-05-02T00:00:00Z,30.2513,-88.0778,2.5206962,23.09,1111122 
DISL,ioos:station:DISL:DISL:1,2013-05-02T00:30:00Z,30.2513,-88.0778,2.4079201,23.0,1111122 
DISL,ioos:station:DISL:DISL:1,2013-05-02T01:00:00Z,30.2513,-88.0778,2.350008,23.02,1111122 
DISL,ioos:station:DISL:DISL:1,2013-05-02T01:30:00Z,30.2513,-88.0778,2.307336,22.99,1111122 
DISL,ioos:station:DISL:DISL:1,2013-05-02T02:00:00Z,30.2513,-88.0778,2.310384,23.02,1111122 
DISL,ioos:station:DISL:DISL:1,2013-05-02T02:30:00Z,30.2513,-88.0778,2.25552,22.91,1111122 
DISL,ioos:station:DISL:DISL:1,2013-05-02T03:00:00Z,30.2513,-88.0778,2.258568,22.39,1111122 
DISL,ioos:station:DISL:DISL:1,2013-05-02T03:30:00Z,30.2513,-88.0778,2.322576,22.27,1111122 
DISL,ioos:station:DISL:DISL:1,2013-05-02T04:00:00Z,30.2513,-88.0778,2.27076,22.35,1111122 
DISL,ioos:station:DISL:DISL:1,2013-05-02T04:30:00Z,30.2513,-88.0778,2.221992,21.85,1111122 
DISL,ioos:station:DISL:DISL:1,2013-05-02T05:00:00Z,30.2513,-88.0778,2.173224,21.6,1111122 
DISL,ioos:station:DISL:DISL:1,2013-05-02T05:30:00Z,30.2513,-88.0778,2.06502,21.22,1111122 
DISL,ioos:station:DISL:DISL:1,2013-05-02T06:00:00Z,30.2513,-88.0778,2.2128482,21.09,1111122 
DISL,ioos:station:DISL:DISL:1,2013-05-02T06:30:00Z,30.2513,-88.0778,2.123237,21.42,1111122 
DISL,ioos:station:DISL:DISL:1,2013-05-02T07:00:00Z,30.2513,-88.0778,2.16408,21.63,1111122 
DISL,ioos:station:DISL:DISL:1,2013-05-02T07:30:00Z,30.2513,-88.0778,2.182368,21.38,1111122 
DISL,ioos:station:DISL:DISL:1,2013-05-02T08:00:00Z,30.2513,-88.0778,2.258568,21.52,1111122 
DISL,ioos:station:DISL:DISL:1,2013-05-02T08:30:00Z,30.2513,-88.0778,2.24028,14.78,1111122 
DISL,ioos:station:DISL:DISL:1,2013-05-02T09:00:00Z,30.2513,-88.0778,2.27076,13.39,1111122 
DISL,ioos:station:DISL:DISL:1,2013-05-02T09:30:00Z,30.2513,-88.0778,2.273808,13.58,1111122 
DISL,ioos:station:DISL:DISL:1,2013-05-02T10:00:00Z,30.2513,-88.0778,2.252472,12.78,1111122 
DISL,ioos:station:DISL:DISL:1,2013-05-02T10:30:00Z,30.2513,-88.0778,2.243328,11.52,1111122 
DISL,ioos:station:DISL:DISL:1,2013-05-02T11:00:00Z,30.2513,-88.0778,2.258568,10.5,1111122 
DISL,ioos:station:DISL:DISL:1,2013-05-02T11:30:00Z,30.2513,-88.0778,2.307336,9.23,1111122 
DISL,ioos:station:DISL:DISL:1,2013-05-02T12:00:00Z,30.2513,-88.0778,2.328672,9.09,1111122 
DISL,ioos:station:DISL:DISL:1,2013-05-02T12:30:00Z,30.2513,-88.0778,2.322576,9.02,1111122 
DISL,ioos:station:DISL:DISL:1,2013-05-02T13:00:00Z,30.2513,-88.0778,2.3561041,9.2,1111122 
DISL,ioos:station:DISL:DISL:1,2013-05-02T13:30:00Z,30.2513,-88.0778,2.304288,9.14,1111122 
DISL,ioos:station:DISL:DISL:1,2013-05-02T14:00:00Z,30.2513,-88.0778,2.368296,9.05,1111122 
DISL,ioos:station:DISL:DISL:1,2013-05-02T14:30:00Z,30.2513,-88.0778,2.380488,9.06,1111122 
DISL,ioos:station:DISL:DISL:1,2013-05-02T15:00:00Z,30.2513,-88.0778,2.282952,9.03,1111122 
DISL,ioos:station:DISL:DISL:1,2013-05-02T15:30:00Z,30.2513,-88.0778,2.2890482,9.09,1111122 
DISL,ioos:station:DISL:DISL:1,2013-05-02T16:00:00Z,30.2513,-88.0778,2.310384,9.13,1111122 
DISL,ioos:station:DISL:DISL:1,2013-05-02T16:30:00Z,30.2513,-88.0778,2.307336,9.47,1111122 
DISL,ioos:station:DISL:DISL:1,2013-05-02T17:00:00Z,30.2513,-88.0778,2.322576,9.72,1111122 
DISL,ioos:station:DISL:DISL:1,2013-05-02T17:30:00Z,30.2513,-88.0778,2.310384,10.4,1111122 
DISL,ioos:station:DISL:DISL:1,2013-05-02T18:00:00Z,30.2513,-88.0778,2.310384,10.95,1111122 
DISL,ioos:station:DISL:DISL:1,2013-05-02T18:30:00Z,30.2513,-88.0778,2.307336,11.58,1111122 
DISL,ioos:station:DISL:DISL:1,2013-05-02T19:00:00Z,30.2513,-88.0778,2.313432,13.17,1111122 
DISL,ioos:station:DISL:DISL:1,2013-05-02T19:30:00Z,30.2513,-88.0778,2.319528,13.8,1111122 
DISL,ioos:station:DISL:DISL:1,2013-05-02T20:00:00Z,30.2513,-88.0778,2.337816,13.68,1111122 
DISL,ioos:station:DISL:DISL:1,2013-05-02T20:30:00Z,30.2513,-88.0778,2.310384,13.05,1111122 
DISL,ioos:station:DISL:DISL:1,2013-05-02T21:00:00Z,30.2513,-88.0778,2.3591518,13.12,1111122 
DISL,ioos:station:DISL:DISL:1,2013-05-02T21:30:00Z,30.2513,-88.0778,2.340864,12.5,1111122 
DISL,ioos:station:DISL:DISL:1,2013-05-02T22:00:00Z,30.2513,-88.0778,2.340864,11.85,1111122 
DISL,ioos:station:DISL:DISL:1,2013-05-02T22:30:00Z,30.2513,-88.0778,2.319528,11.55,1111122 
DISL,ioos:station:DISL:DISL:1,2013-05-02T23:00:00Z,30.2513,-88.0778,2.304288,10.86,1111122 
DISL,ioos:station:DISL:DISL:1,2013-05-02T23:30:00Z,30.2513,-88.0778,2.307336,10.38,1111122 
DISL,ioos:station:DISL:DISL:1,2013-05-03T00:00:00Z,30.2513,-88.0778,2.310384,10.13,1111122 
DISL,ioos:station:DISL:DISL:1,2013-05-03T00:30:00Z,30.2513,-88.0778,2.313432,10.1,1111122 
DISL,ioos:station:DISL:DISL:1,2013-05-03T01:00:00Z,30.2513,-88.0778,2.2920961,10.08,1111122 
DISL,ioos:station:DISL:DISL:1,2013-05-03T01:30:00Z,30.2513,-88.0778,2.27076,10.49,1111122 
DISL,ioos:station:DISL:DISL:1,2013-05-03T02:00:00Z,30.2513,-88.0778,2.319528,10.12,1111122 
DISL,ioos:station:DISL:DISL:1,2013-05-03T02:30:00Z,30.2513,-88.0778,2.34696,9.79,1111122 
DISL,ioos:station:DISL:DISL:1,2013-05-03T03:00:00Z,30.2513,-88.0778,2.252472,9.91,1111122 
DISL,ioos:station:DISL:DISL:1,2013-05-03T03:30:00Z,30.2513,-88.0778,2.221992,9.24,1111122 
DISL,ioos:station:DISL:DISL:1,2013-05-03T04:00:00Z,30.2513,-88.0778,2.191512,8.46,1111122 
DISL,ioos:station:DISL:DISL:1,2013-05-03T04:30:00Z,30.2513,-88.0778,2.167128,8.41,1111122 
DISL,ioos:station:DISL:DISL:1,2013-05-03T05:00:00Z,30.2513,-88.0778,2.17932,8.5,1111122 
DISL,ioos:station:DISL:DISL:1,2013-05-03T05:30:00Z,30.2513,-88.0778,2.157984,8.48,1111122 
DISL,ioos:station:DISL:DISL:1,2013-05-03T06:00:00Z,30.2513,-88.0778,2.142744,8.33,1111122 
DISL,ioos:station:DISL:DISL:1,2013-05-03T06:30:00Z,30.2513,-88.0778,2.1189697,8.18,1111122 
DISL,ioos:station:DISL:DISL:1,2013-05-03T07:00:00Z,30.2513,-88.0778,2.1104352,7.88,1111122 
DISL,ioos:station:DISL:DISL:1,2013-05-03T07:30:00Z,30.2513,-88.0778,2.124456,7.76,1111122 
DISL,ioos:station:DISL:DISL:1,2013-05-03T08:00:00Z,30.2513,-88.0778,2.0583143,7.63,1111122 
DISL,ioos:station:DISL:DISL:1,2013-05-03T08:30:00Z,30.2513,-88.0778,2.109216,7.64,1111122 
DISL,ioos:station:DISL:DISL:1,2013-05-03T09:00:00Z,30.2513,-88.0778,2.0951953,7.61,1111122 
DISL,ioos:station:DISL:DISL:1,2013-05-03T09:30:00Z,30.2513,-88.0778,2.1143975,7.58,1111122 
DISL,ioos:station:DISL:DISL:1,2013-05-03T10:00:00Z,30.2513,-88.0778,2.1336,7.57,1111122 
DISL,ioos:station:DISL:DISL:1,2013-05-03T10:30:00Z,30.2513,-88.0778,2.1488402,7.65,1111122 
DISL,ioos:station:DISL:DISL:1,2013-05-03T11:00:00Z,30.2513,-88.0778,2.182368,7.8,1111122 
DISL,ioos:station:DISL:DISL:1,2013-05-03T11:30:00Z,30.2513,-88.0778,2.167128,8.45,1111122 
DISL,ioos:station:DISL:DISL:1,2013-05-03T12:00:00Z,30.2513,-88.0778,2.203704,9.16,1111122 
DISL,ioos:station:DISL:DISL:1,2013-05-03T12:30:00Z,30.2513,-88.0778,2.173224,10.09,1111122 
DISL,ioos:station:DISL:DISL:1,2013-05-03T13:00:00Z,30.2513,-88.0778,2.200656,10.38,1111122 
DISL,ioos:station:DISL:DISL:1,2013-05-03T13:30:00Z,30.2513,-88.0778,2.167128,10.55,1111122 
DISL,ioos:station:DISL:DISL:1,2013-05-03T14:00:00Z,30.2513,-88.0778,2.24028,10.28,1111122 
DISL,ioos:station:DISL:DISL:1,2013-05-03T14:30:00Z,30.2513,-88.0778,2.249424,9.92,1111122 
DISL,ioos:station:DISL:DISL:1,2013-05-03T15:00:00Z,30.2513,-88.0778,2.273808,10.28,1111122 
DISL,ioos:station:DISL:DISL:1,2013-05-03T15:30:00Z,30.2513,-88.0778,2.264664,12.69,1111122 
DISL,ioos:station:DISL:DISL:1,2013-05-03T16:00:00Z,30.2513,-88.0778,2.24028,13.29,1111122 
DISL,ioos:station:DISL:DISL:1,2013-05-03T16:30:00Z,30.2513,-88.0778,2.161032,16.51,1111122 
DISL,ioos:station:DISL:DISL:1,2013-05-03T17:00:00Z,30.2513,-88.0778,2.252472,19.33,1111122 
DISL,ioos:station:DISL:DISL:1,2013-05-03T17:30:00Z,30.2513,-88.0778,2.2128482,19.15,1111122 
DISL,ioos:station:DISL:DISL:1,2013-05-03T18:00:00Z,30.2513,-88.0778,2.2250402,12.28,1111122 
DISL,ioos:station:DISL:DISL:1,2013-05-03T18:30:00Z,30.2513,-88.0778,2.3012402,11.4,1111122 
DISL,ioos:station:DISL:DISL:1,2013-05-03T19:00:00Z,30.2513,-88.0778,2.261616,11.09,1111122 
DISL,ioos:station:DISL:DISL:1,2013-05-03T19:30:00Z,30.2513,-88.0778,2.243328,11.01,1111122 
DISL,ioos:station:DISL:DISL:1,2013-05-03T20:00:00Z,30.2513,-88.0778,2.228088,11.2,1111122 
DISL,ioos:station:DISL:DISL:1,2013-05-03T20:30:00Z,30.2513,-88.0778,2.2158961,11.1,1111122 
DISL,ioos:station:DISL:DISL:1,2013-05-03T21:00:00Z,30.2513,-88.0778,2.249424,10.87,1111122 
DISL,ioos:station:DISL:DISL:1,2013-05-03T21:30:00Z,30.2513,-88.0778,2.203704,11.35,1111122 
DISL,ioos:station:DISL:DISL:1,2013-05-03T22:00:00Z,30.2513,-88.0778,2.228088,10.78,1111122 
DISL,ioos:station:DISL:DISL:1,2013-05-03T22:30:00Z,30.2513,-88.0778,2.218944,10.71,1111122 
DISL,ioos:station:DISL:DISL:1,2013-05-03T23:00:00Z,30.2513,-88.0778,2.191512,10.72,1111122 
DISL,ioos:station:DISL:DISL:1,2013-05-03T23:30:00Z,30.2513,-88.0778,2.218944,10.63,1111122 
DISL,ioos:station:DISL:DISL:1,2013-05-04T00:00:00Z,30.2513,-88.0778,2.298192,10.57,1111122 
DISL,ioos:station:DISL:DISL:1,2013-05-04T00:30:00Z,30.2513,-88.0778,2.221992,12.11,1111122 
DISL,ioos:station:DISL:DISL:1,2013-05-04T01:00:00Z,30.2513,-88.0778,2.258568,12.83,1111122 
DISL,ioos:station:DISL:DISL:1,2013-05-04T01:30:00Z,30.2513,-88.0778,2.071421,12.88,1111122 
DISL,ioos:station:DISL:DISL:1,2013-05-04T02:00:00Z,30.2513,-88.0778,2.1488402,12.99,1111122 
DISL,ioos:station:DISL:DISL:1,2013-05-04T02:30:00Z,30.2513,-88.0778,2.264664,10.27,1111122 
DISL,ioos:station:DISL:DISL:1,2013-05-04T03:00:00Z,30.2513,-88.0778,2.170176,10.13,1111122 
DISL,ioos:station:DISL:DISL:1,2013-05-04T03:30:00Z,30.2513,-88.0778,2.16408,10.12,1111122 
DISL,ioos:station:DISL:DISL:1,2013-05-04T04:00:00Z,30.2513,-88.0778,2.17932,10.09,1111122 
DISL,ioos:station:DISL:DISL:1,2013-05-04T04:30:00Z,30.2513,-88.0778,2.151888,10.12,1111122 
DISL,ioos:station:DISL:DISL:1,2013-05-04T05:00:00Z,30.2513,-88.0778,2.0985482,10.13,1111122 
DISL,ioos:station:DISL:DISL:1,2013-05-04T05:30:00Z,30.2513,-88.0778,2.0890992,10.24,1111122 
DISL,ioos:station:DISL:DISL:1,2013-05-04T06:00:00Z,30.2513,-88.0778,2.1311617,10.26,1111122 
DISL,ioos:station:DISL:DISL:1,2013-05-04T06:30:00Z,30.2513,-88.0778,1.9418808,10.28,1111122 
DISL,ioos:station:DISL:DISL:1,2013-05-04T07:00:00Z,30.2513,-88.0778,1.8894552,9.89,1111122 
DISL,ioos:station:DISL:DISL:1,2013-05-04T07:30:00Z,30.2513,-88.0778,2.142744,9.63,1111122 
DISL,ioos:station:DISL:DISL:1,2013-05-04T08:00:00Z,30.2513,-88.0778,2.0769072,9.51,1111122 
DISL,ioos:station:DISL:DISL:1,2013-05-04T08:30:00Z,30.2513,-88.0778,2.151888,9.51,1111122 
DISL,ioos:station:DISL:DISL:1,2013-05-04T09:00:00Z,30.2513,-88.0778,1.9647409,9.61,1111122 
DISL,ioos:station:DISL:DISL:1,2013-05-04T09:30:00Z,30.2513,-88.0778,2.0912328,9.83,1111122 
DISL,ioos:station:DISL:DISL:1,2013-05-04T10:00:00Z,30.2513,-88.0778,1.9958304,9.79,1111122 
DISL,ioos:station:DISL:DISL:1,2013-05-04T10:30:00Z,30.2513,-88.0778,1.9043905,9.76,1111122 
DISL,ioos:station:DISL:DISL:1,2013-05-04T11:00:00Z,30.2513,-88.0778,1.8376392,9.77,1111122 
DISL,ioos:station:DISL:DISL:1,2013-05-04T11:30:00Z,30.2513,-88.0778,1.7980152,9.77,1111122 
DISL,ioos:station:DISL:DISL:1,2013-05-04T12:00:00Z,30.2513,-88.0778,1.9199351,9.74,1111122 
DISL,ioos:station:DISL:DISL:1,2013-05-04T12:30:00Z,30.2513,-88.0778,1.9165825,10.03,1111122 
DISL,ioos:station:DISL:DISL:1,2013-05-04T13:00:00Z,30.2513,-88.0778,1.8970752,10.77,1111122 
DISL,ioos:station:DISL:DISL:1,2013-05-04T13:30:00Z,30.2513,-88.0778,1.941576,11.53,1111122 
DISL,ioos:station:DISL:DISL:1,2013-05-04T14:00:00Z,30.2513,-88.0778,1.9181064,11.92,1111122 
DISL,ioos:station:DISL:DISL:1,2013-05-04T14:30:00Z,30.2513,-88.0778,1.89738,12.19,1111122 
DISL,ioos:station:DISL:DISL:1,2013-05-04T15:00:00Z,30.2513,-88.0778,1.991868,12.49,1111122 
DISL,ioos:station:DISL:DISL:1,2013-05-04T15:30:00Z,30.2513,-88.0778,1.985772,12.66,1111122 
DISL,ioos:station:DISL:DISL:1,2013-05-04T16:00:00Z,30.2513,-88.0778,1.9534632,12.86,1111122 
DISL,ioos:station:DISL:DISL:1,2013-05-04T16:30:00Z,30.2513,-88.0778,1.9653504,13.14,1111122 
DISL,ioos:station:DISL:DISL:1,2013-05-04T17:00:00Z,30.2513,-88.0778,2.0000975,13.19,1111122 
DISL,ioos:station:DISL:DISL:1,2013-05-04T17:30:00Z,30.2513,-88.0778,1.9357848,12.9,1111122 
DISL,ioos:station:DISL:DISL:1,2013-05-04T18:00:00Z,30.2513,-88.0778,1.9519391,12.51,1111122 
DISL,ioos:station:DISL:DISL:1,2013-05-04T18:30:00Z,30.2513,-88.0778,2.0247865,12.32,1111122 
DISL,ioos:station:DISL:DISL:1,2013-05-04T19:00:00Z,30.2513,-88.0778,1.9790665,12.08,1111122 
DISL,ioos:station:DISL:DISL:1,2013-05-04T19:30:00Z,30.2513,-88.0778,1.9732752,11.85,1111122 
DISL,ioos:station:DISL:DISL:1,2013-05-04T20:00:00Z,30.2513,-88.0778,1.9677888,11.85,1111122 
DISL,ioos:station:DISL:DISL:1,2013-05-04T20:30:00Z,30.2513,-88.0778,2.0903184,12.01,1111122 
DISL,ioos:station:DISL:DISL:1,2013-05-04T21:00:00Z,30.2513,-88.0778,2.005584,11.68,1111122 
DISL,ioos:station:DISL:DISL:1,2013-05-04T21:30:00Z,30.2513,-88.0778,2.0302727,12.43,1111122 
DISL,ioos:station:DISL:DISL:1,2013-05-04T22:00:00Z,30.2513,-88.0778,2.0778215,13.21,1111122 
DISL,ioos:station:DISL:DISL:1,2013-05-04T22:30:00Z,30.2513,-88.0778,1.9997928,11.91,1111122 
DISL,ioos:station:DISL:DISL:1,2013-05-04T23:00:00Z,30.2513,-88.0778,2.0485609,11.95,1111122 
DISL,ioos:station:DISL:DISL:1,2013-05-04T23:30:00Z,30.2513,-88.0778,2.0570953,12.06,1111122 
DISL,ioos:station:DISL:DISL:1,2013-05-05T00:00:00Z,30.2513,-88.0778,2.130552,12.99,1111122 
DISL,ioos:station:DISL:DISL:1,2013-05-05T00:30:00Z,30.2513,-88.0778,2.0522184,13.07,1111122 
DISL,ioos:station:DISL:DISL:1,2013-05-05T01:00:00Z,30.2513,-88.0778,2.0445986,12.59,1111122 
DISL,ioos:station:DISL:DISL:1,2013-05-05T01:30:00Z,30.2513,-88.0778,2.042465,12.18,1111122 
DISL,ioos:station:DISL:DISL:1,2013-05-05T02:00:00Z,30.2513,-88.0778,2.071421,16.74,1111122 
DISL,ioos:station:DISL:DISL:1,2013-05-05T02:30:00Z,30.2513,-88.0778,2.0729449,11.56,1111122 
DISL,ioos:station:DISL:DISL:1,2013-05-05T03:00:00Z,30.2513,-88.0778,2.0656297,11.17,1111122 
DISL,ioos:station:DISL:DISL:1,2013-05-05T03:30:00Z,30.2513,-88.0778,2.0564857,11.36,1111122 
DISL,ioos:station:DISL:DISL:1,2013-05-05T04:00:00Z,30.2513,-88.0778,2.0409408,11.32,1111122 
DISL,ioos:station:DISL:DISL:1,2013-05-05T04:30:00Z,30.2513,-88.0778,2.0278344,11.35,1111122 
DISL,ioos:station:DISL:DISL:1,2013-05-05T05:00:00Z,30.2513,-88.0778,2.0348449,11.18,1111122 
DISL,ioos:station:DISL:DISL:1,2013-05-05T05:30:00Z,30.2513,-88.0778,2.0369785,11.08,1111122 
DISL,ioos:station:DISL:DISL:1,2013-05-05T06:00:00Z,30.2513,-88.0778,2.0461223,11.18,1111122 
DISL,ioos:station:DISL:DISL:1,2013-05-05T06:30:00Z,30.2513,-88.0778,2.029968,11.06,1111122 
DISL,ioos:station:DISL:DISL:1,2013-05-05T07:00:00Z,30.2513,-88.0778,2.039112,10.91,1111122 
DISL,ioos:station:DISL:DISL:1,2013-05-05T07:30:00Z,30.2513,-88.0778,2.025396,10.93,1111122 
DISL,ioos:station:DISL:DISL:1,2013-05-05T08:00:00Z,30.2513,-88.0778,2.0135088,10.98,1111122 
DISL,ioos:station:DISL:DISL:1,2013-05-05T08:30:00Z,30.2513,-88.0778,2.0007071,11.03,1111122 
DISL,ioos:station:DISL:DISL:1,2013-05-05T09:00:00Z,30.2513,-88.0778,1.9985737,11.09,1111122 
DISL,ioos:station:DISL:DISL:1,2013-05-05T09:30:00Z,30.2513,-88.0778,2.0098512,11.15,1111122 
DISL,ioos:station:DISL:DISL:1,2013-05-05T10:00:00Z,30.2513,-88.0778,2.0138135,11.26,1111122 
DISL,ioos:station:DISL:DISL:1,2013-05-05T10:30:00Z,30.2513,-88.0778,1.99644,11.35,1111122 
DISL,ioos:station:DISL:DISL:1,2013-05-05T11:00:00Z,30.2513,-88.0778,1.9839432,11.43,1111122 
DISL,ioos:station:DISL:DISL:1,2013-05-05T11:30:00Z,30.2513,-88.0778,1.9894296,11.5,1111122 
DISL,ioos:station:DISL:DISL:1,2013-05-05T12:00:00Z,30.2513,-88.0778,2.001012,11.55,1111122 
DISL,ioos:station:DISL:DISL:1,2013-05-05T12:30:00Z,30.2513,-88.0778,2.0308824,11.68,1111122 
DISL,ioos:station:DISL:DISL:1,2013-05-05T13:00:00Z,30.2513,-88.0778,2.0342352,11.86,1111122 
DISL,ioos:station:DISL:DISL:1,2013-05-05T13:30:00Z,30.2513,-88.0778,2.0516088,12.1,1111122 
DISL,ioos:station:DISL:DISL:1,2013-05-05T14:00:00Z,30.2513,-88.0778,2.0439887,12.28,1111122 
DISL,ioos:station:DISL:DISL:1,2013-05-05T14:30:00Z,30.2513,-88.0778,2.0509992,12.35,1111122 
DISL,ioos:station:DISL:DISL:1,2013-05-05T15:00:00Z,30.2513,-88.0778,2.020824,12.41,1111122 
DISL,ioos:station:DISL:DISL:1,2013-05-05T15:30:00Z,30.2513,-88.0778,2.0068033,12.44,1111122 
DISL,ioos:station:DISL:DISL:1,2013-05-05T16:00:00Z,30.2513,-88.0778,1.9662648,12.49,1111122 
DISL,ioos:station:DISL:DISL:1,2013-05-05T16:30:00Z,30.2513,-88.0778,1.9406617,12.5,1111122 
DISL,ioos:station:DISL:DISL:1,2013-05-05T17:00:00Z,30.2513,-88.0778,1.9257264,12.59,1111122 
DISL,ioos:station:DISL:DISL:1,2013-05-05T17:30:00Z,30.2513,-88.0778,1.9251168,12.66,1111122 
DISL,ioos:station:DISL:DISL:1,2013-05-05T18:00:00Z,30.2513,-88.0778,1.9129249,12.69,1111122 
DISL,ioos:station:DISL:DISL:1,2013-05-05T18:30:00Z,30.2513,-88.0778,1.8934176,12.74,1111122 
DISL,ioos:station:DISL:DISL:1,2013-05-05T19:00:00Z,30.2513,-88.0778,1.8931128,12.81,1111122 
DISL,ioos:station:DISL:DISL:1,2013-05-05T19:30:00Z,30.2513,-88.0778,1.8812256,12.85,1111122 
DISL,ioos:station:DISL:DISL:1,2013-05-05T20:00:00Z,30.2513,-88.0778,1.8803113,12.98,1111122 
DISL,ioos:station:DISL:DISL:1,2013-05-05T20:30:00Z,30.2513,-88.0778,1.8769584,13.02,1111122 
DISL,ioos:station:DISL:DISL:1,2013-05-05T21:00:00Z,30.2513,-88.0778,1.818132,13.12,1111122 
DISL,ioos:station:DISL:DISL:1,2013-05-05T21:30:00Z,30.2513,-88.0778,1.8102072,13.13,1111122 
DISL,ioos:station:DISL:DISL:1,2013-05-05T22:00:00Z,30.2513,-88.0778,1.8239232,13.18,1111122 
DISL,ioos:station:DISL:DISL:1,2013-05-05T22:30:00Z,30.2513,-88.0778,1.8214848,13.22,1111122 
DISL,ioos:station:DISL:DISL:1,2013-05-05T23:00:00Z,30.2513,-88.0778,1.8031968,13.15,1111122 
DISL,ioos:station:DISL:DISL:1,2013-05-05T23:30:00Z,30.2513,-88.0778,1.7535144,13.24,1111122 
DISL,ioos:station:DISL:DISL:1,2013-05-06T00:00:00Z,30.2513,-88.0778,1.8041112,13.29,1111122 
DISL,ioos:station:DISL:DISL:1,2013-05-06T00:30:00Z,30.2513,-88.0778,1.8099024,13.33,1111122 
DISL,ioos:station:DISL:DISL:1,2013-05-06T01:00:00Z,30.2513,-88.0778,1.8004537,13.33,1111122 
DISL,ioos:station:DISL:DISL:1,2013-05-06T01:30:00Z,30.2513,-88.0778,1.764792,13.25,1111122 
DISL,ioos:station:DISL:DISL:1,2013-05-06T02:00:00Z,30.2513,-88.0778,1.7785081,13.27,1111122 
DISL,ioos:station:DISL:DISL:1,2013-05-06T02:30:00Z,30.2513,-88.0778,1.7867376,13.3,1111122 
DISL,ioos:station:DISL:DISL:1,2013-05-06T03:00:00Z,30.2513,-88.0778,1.7306544,13.26,1111122 
DISL,ioos:station:DISL:DISL:1,2013-05-06T03:30:00Z,30.2513,-88.0778,1.6971264,13.23,1111122 
DISL,ioos:station:DISL:DISL:1,2013-05-06T04:00:00Z,30.2513,-88.0778,1.7614392,13.24,1111122 
DISL,ioos:station:DISL:DISL:1,2013-05-06T04:30:00Z,30.2513,-88.0778,1.7340072,13.24,1111122 
DISL,ioos:station:DISL:DISL:1,2013-05-06T05:00:00Z,30.2513,-88.0778,1.8016727,13.18,1111122 
DISL,ioos:station:DISL:DISL:1,2013-05-06T05:30:00Z,30.2513,-88.0778,1.7821656,13.21,1111122 
DISL,ioos:station:DISL:DISL:1,2013-05-06T06:00:00Z,30.2513,-88.0778,1.7867376,13.32,1111122 
DISL,ioos:station:DISL:DISL:1,2013-05-06T06:30:00Z,30.2513,-88.0778,1.8205705,13.41,1111122 
DISL,ioos:station:DISL:DISL:1,2013-05-06T07:00:00Z,30.2513,-88.0778,1.8159984,13.47,1111122 
DISL,ioos:station:DISL:DISL:1,2013-05-06T07:30:00Z,30.2513,-88.0778,1.8644617,13.5,1111122 
DISL,ioos:station:DISL:DISL:1,2013-05-06T08:00:00Z,30.2513,-88.0778,1.839468,13.52,1111122 
DISL,ioos:station:DISL:DISL:1,2013-05-06T08:30:00Z,30.2513,-88.0778,1.8486121,13.51,1111122 
DISL,ioos:station:DISL:DISL:1,2013-05-06T09:00:00Z,30.2513,-88.0778,1.8803113,13.44,1111122 